STARLINK-35123 (65634 NORAD) Tracking and Keplerian Element Data

This shows tracking and keplerian element data for the satellite.

Feedback or suggestion? Click here.




ElementValue
Catalog65634
NameSTARLINK-35123
Epoch Orbit1555
Epoch Day354.16752491
Epoch Year2025
RAAN316.6117
Inclination53.1622
Eccentricity0.0001476
Argument of Perigee88.6734
Mean Anonmoly271.4436
Mean Motion15.3019933
Decay Rate0.00021803
L11 65634U 25210N 25354.16752491 .00021803 00000+0 74610-3 0 9992
L22 65634 53.1622 316.6117 0001476 88.6734 271.4436 15.30199330 15551



Live tracking and technical data element details for STARLINK-35123 (NORAD 65634). STARLINK-35123 can be tracked NOW for your location showing map with azimuth and elevation plus other details from your city location.







IsCatalogInMostPopularTable: catalog: 65634, numindb: 13
Update: records affected: 1



GetName: 65634 STARLINK-35123

Hit Count: updated at: Tue, 14 Apr 2026 23:50:10 GMT